GW5170 Weather Reports


Display with metric or nautical units.
time (UTC)temp
F
wind
direction
speed
MPH
gust
MPH
rain 1hr
in
rain 24hr
in
rain mn
in
humidity
%
barometer
mb
20260903135728 80 330 3.0 4.0 0.00 0.00 0.00 79 1015.0
20260903135223 80 350 4.0 4.0 0.00 0.00 0.00 80 1015.3
20260903134721 80 11 4.0 4.0 0.00 0.00 0.00 82 1015.4
20260903134217 80 313 4.0 4.0 0.00 0.00 0.00 81 1015.1
20260903133715 79 326 3.0 3.0 0.00 0.00 0.00 82 1014.9
20260903133212 79 338 10.0 13.0 0.00 0.00 0.00 84 1015.4
20260903132711 78 349 0.0 0.0 0.00 0.00 0.00 85 1014.8
20260903132206 78 326 6.0 9.0 0.00 0.00 0.00 84 1015.2
20260903131701 78 319 2.0 2.0 0.00 0.00 0.00 83 1014.5
20260903131155 79 277 2.0 2.0 0.00 0.00 0.00 83 1014.4
20260903130650 79 322 2.0 2.0 0.00 0.00 0.00 83 1014.3
20260903130149 79 267 2.0 3.0 0.00 0.00 0.00 82 1014.3
20260903125648 78 236 3.0 4.0 0.00 0.00 0.00 83 1014.2
20260903125144 78 319 2.0 2.0 0.00 0.00 0.00 83 1014.1
20260903124638 78 311 2.0 2.0 0.00 0.00 0.00 84 1014.4
20260903124137 78 241 3.0 3.0 0.00 0.00 0.00 84 1014.1
20260903123637 77 297 2.0 2.0 0.00 0.00 0.00 84 1014.1
20260903123136 78 309 1.0 2.0 0.00 0.00 0.00 84 1014.1
20260903122636 77 286 2.0 2.0 0.00 0.00 0.00 85 1014.2
20260903122130 77 306 2.0 2.0 0.00 0.00 0.00 85 1014.3
20260903121629 77 306 2.0 2.0 0.00 0.00 0.00 85 1014.1
20260903121125 77 317 2.0 2.0 0.00 0.00 0.00 85 1014.1
20260903120624 77 230 3.0 3.0 0.00 0.00 0.00 85 1014.0
20260903120119 77 343 1.0 1.0 0.00 0.00 0.00 85 1014.0
20260903115617 77 339 0.0 0.0 0.00 0.00 0.00 85 1014.0
20260903115113 77 346 0.0 1.0 0.00 0.00 0.00 85 1013.9
20260903114608 77 309 2.0 2.0 0.00 0.00 0.00 85 1014.0
20260903114103 77 330 0.0 0.0 0.00 0.00 0.00 86 1014.0
20260903113558 77 332 1.0 1.0 0.00 0.00 0.00 86 1013.9
20260903113054 77 299 2.0 3.0 0.00 0.00 0.00 86 1013.9
20260903112550 77 337 0.0 0.0 0.00 0.00 0.00 86 1013.7
20260903112050 77 311 2.0 2.0 0.00 0.00 0.00 86 1013.5
20260903111549 77 303 2.0 2.0 0.00 0.00 0.00 86 1013.7
20260903111040 77 345 0.0 0.0 0.00 0.00 0.00 87 1013.6
20260903110536 77 338 0.0 0.0 0.00 0.00 0.00 87 1013.5
20260903110036 77 341 1.0 1.0 0.00 0.00 0.00 86 1013.7
20260903105531 77 229 2.0 2.0 0.00 0.00 0.00 86 1013.5
20260903105025 77 331 1.0 2.0 0.00 0.00 0.00 86 1013.7
20260903104519 77 335 0.0 1.0 0.00 0.00 0.00 86 1013.7
20260903104015 77 313 1.0 2.0 0.00 0.00 0.00 86 1013.5
20260903103511 77 326 1.0 1.0 0.00 0.00 0.00 86 1013.6
20260903103007 77 311 1.0 1.0 0.00 0.00 0.00 86 1013.5
20260903102502 77 342 1.0 1.0 0.00 0.00 0.00 86 1013.7
20260903102000 77 304 1.0 1.0 0.00 0.00 0.00 87 1013.9
20260903101455 77 334 1.0 1.0 0.00 0.00 0.00 87 1013.6
20260903100951 77 347 0.0 0.0 0.00 0.00 0.00 87 1013.6
20260903100447 77 339 1.0 1.0 0.00 0.00 0.00 87 1013.7
20260903095944 77 341 1.0 1.0 0.00 0.00 0.00 87 1013.6
20260903095443 77 330 0.0 1.0 0.00 0.00 0.00 87 1013.7
20260903094939 77 341 0.0 0.0 0.00 0.00 0.00 87 1013.6
20260903094438 77 331 1.0 1.0 0.00 0.00 0.00 88 1013.7
20260903093935 77 316 0.0 1.0 0.00 0.00 0.00 88 1013.7
20260903093429 77 314 1.0 1.0 0.00 0.00 0.00 88 1013.6
20260903092925 77 336 0.0 0.0 0.00 0.00 0.00 88 1013.6
20260903092425 77 310 1.0 1.0 0.00 0.00 0.00 88 1013.5
20260903091924 77 333 1.0 1.0 0.00 0.00 0.00 87 1013.7
20260903091422 77 308 1.0 2.0 0.00 0.00 0.00 88 1013.6
20260903090918 77 341 0.0 0.0 0.00 0.00 0.00 88 1013.7
20260903090413 77 329 0.0 1.0 0.00 0.00 0.00 88 1013.6
20260903085912 77 329 0.0 1.0 0.00 0.00 0.00 88 1013.5
20260903085410 77 339 0.0 1.0 0.00 0.00 0.00 88 1013.7
20260903084910 77 318 0.0 1.0 0.00 0.00 0.00 88 1013.6
20260903084409 77 325 1.0 1.0 0.00 0.00 0.00 88 1013.7
20260903083904 77 340 0.0 1.0 0.00 0.00 0.00 88 1013.6
20260903083400 77 343 0.0 0.0 0.00 0.00 0.00 88 1013.6
20260903082859 77 341 1.0 1.0 0.00 0.00 0.00 88 1013.6
20260903082354 78 8 1.0 1.0 0.00 0.00 0.00 88 1013.6
20260903081849 78 345 0.0 0.0 0.00 0.00 0.00 88 1013.5
20260903081344 78 336 0.0 0.0 0.00 0.00 0.00 88 1013.4
20260903080841 78 325 0.0 1.0 0.00 0.00 0.00 88 1013.5
20260903080338 78 330 0.0 1.0 0.00 0.00 0.00 88 1013.5
20260903075837 78 309 1.0 2.0 0.00 0.00 0.00 88 1013.4
20260903075333 78 325 1.0 1.0 0.00 0.00 0.00 88 1013.4
20260903074827 78 344 0.0 0.0 0.00 0.00 0.00 89 1013.6
20260903074327 78 335 0.0 0.0 0.00 0.00 0.00 89 1013.5
20260903073822 78 340 0.0 1.0 0.00 0.00 0.00 89 1013.4
20260903073317 78 273 2.0 2.0 0.00 0.00 0.00 89 1013.5
20260903072813 78 20 0.0 1.0 0.00 0.00 0.00 89 1013.5
20260903072309 78 335 0.0 1.0 0.00 0.00 0.00 89 1013.5
20260903071807 78 345 0.0 0.0 0.00 0.00 0.00 90 1013.5
20260903071302 78 341 0.0 0.0 0.00 0.00 0.00 90 1013.6
20260903070801 78 337 0.0 0.0 0.00 0.00 0.00 90 1013.5
20260903070257 78 26 1.0 1.0 0.00 0.00 0.00 90 1013.7
20260903065747 78 345 1.0 1.0 0.00 0.00 0.00 90 1013.7
20260903065246 78 350 1.0 1.0 0.00 0.00 0.00 90 1013.6
20260903064745 78 355 0.0 0.0 0.00 0.00 0.00 91 1013.6
20260903064240 78 353 0.0 0.0 0.00 0.00 0.00 91 1013.6
20260903063736 78 345 0.0 0.0 0.00 0.00 0.00 91 1013.7
20260903063231 79 352 0.0 1.0 0.00 0.00 0.00 91 1013.9
20260903062727 79 352 0.0 0.0 0.00 0.00 0.00 91 1013.7
20260903062226 79 351 0.0 0.0 0.00 0.00 0.00 91 1013.9
20260903061723 79 350 0.0 0.0 0.00 0.00 0.00 91 1014.1
20260903061221 79 343 0.0 0.0 0.00 0.00 0.00 90 1014.0
20260903060717 79 352 0.0 0.0 0.00 0.00 0.00 89 1014.1
20260903060217 80 2 0.0 1.0 0.00 0.00 0.00 89 1013.9
20260903055715 80 335 0.0 1.0 0.00 0.00 0.00 88 1013.9
20260903055214 80 350 0.0 1.0 0.00 0.00 0.00 88 1013.7
20260903054708 80 348 0.0 0.0 0.00 0.00 0.00 88 1013.7
20260903054204 80 9 1.0 1.0 0.00 0.00 0.00 88 1013.9
20260903053700 80 337 1.0 1.0 0.00 0.00 0.00 88 1013.9
20260903053150 80 345 0.0 1.0 0.00 0.00 0.00 88 1013.9
20260903052646 80 348 0.0 0.0 0.00 0.00 0.00 88 1013.9
20260903052141 80 353 0.0 0.0 0.00 0.00 0.00 88 1013.9
20260903051636 80 349 1.0 1.0 0.00 0.00 0.00 88 1013.7
20260903051131 80 353 0.0 0.0 0.00 0.00 0.00 88 1013.9
20260903050626 81 6 1.0 1.0 0.00 0.00 0.00 88 1013.7
20260903050126 81 350 1.0 1.0 0.00 0.00 0.00 87 1013.9
20260903045625 81 355 0.0 1.0 0.00 0.00 0.00 87 1013.9
20260903045122 81 351 0.0 0.0 0.00 0.00 0.00 88 1014.0
20260903044617 81 350 0.0 0.0 0.00 0.00 0.00 88 1013.9
20260903044113 81 350 0.0 0.0 0.00 0.00 0.00 87 1014.0
20260903043609 81 0 1.0 1.0 0.00 0.00 0.00 87 1014.1
20260903043108 81 352 1.0 1.0 0.00 0.00 0.00 87 1014.1
20260903042603 81 353 0.0 0.0 0.00 0.00 0.00 87 1014.0
20260903042058 81 343 0.0 0.0 0.00 0.00 0.00 87 1013.9
20260903041555 81 355 1.0 1.0 0.00 0.00 0.00 87 1014.0
20260903041050 81 20 1.0 1.0 0.00 0.00 0.00 87 1014.0
20260903040549 82 348 3.0 3.0 0.00 0.00 0.00 85 1013.9
20260903040046 82 285 2.0 2.0 0.00 0.00 0.00 85 1013.9
20260903035541 82 310 1.0 2.0 0.00 0.00 0.00 84 1013.6
20260903035037 82 212 4.0 6.0 0.00 0.00 0.00 84 1013.9
20260903034537 82 304 2.0 2.0 0.00 0.00 0.00 84 1013.7
20260903034032 83 263 3.0 3.0 0.00 0.00 0.00 83 1013.9
20260903033527 83 254 3.0 3.0 0.00 0.00 0.00 82 1013.9
20260903033022 83 265 3.0 3.0 0.00 0.00 0.00 82 1013.6
20260903032517 84 314 1.0 1.0 0.00 0.00 0.00 81 1013.9
20260903032012 84 293 2.0 2.0 0.00 0.00 0.00 81 1013.6
20260903031507 84 333 2.0 2.0 0.00 0.00 0.00 80 1013.7
20260903031002 84 307 1.0 2.0 0.00 0.00 0.00 80 1013.7
20260903030457 84 296 1.0 2.0 0.00 0.00 0.00 80 1013.7
20260903025953 84 285 2.0 2.0 0.00 0.00 0.00 80 1013.9
20260903025443 84 216 2.0 3.0 0.00 0.00 0.00 79 1013.9
20260903024938 84 309 2.0 3.0 0.00 0.00 0.00 79 1013.9
20260903024431 84 310 0.0 1.0 0.00 0.00 0.00 79 1014.0
20260903023926 84 319 1.0 1.0 0.00 0.00 0.00 78 1013.9
20260903023423 84 312 2.0 2.0 0.00 0.00 0.00 78 1013.5
20260903022918 85 284 2.0 3.0 0.00 0.00 0.00 78 1013.6
20260903022416 85 322 1.0 1.0 0.00 0.00 0.00 77 1013.6
20260903021914 85 265 1.0 2.0 0.00 0.00 0.00 77 1013.3
20260903021411 85 265 2.0 3.0 0.00 0.00 0.00 77 1013.4
20260903020910 85 255 2.0 2.0 0.00 0.00 0.00 77 1013.3
20260903020407 85 311 2.0 2.0 0.00 0.00 0.00 77 1013.3
20260903015901 85 271 2.0 2.0 0.00 0.00 0.00 76 1013.0
20260903015356 85 294 2.0 2.0 0.00 0.00 0.00 76 1013.1
20260903014851 85 320 3.0 3.0 0.00 0.00 0.00 76 1013.0
20260903014345 85 254 2.0 3.0 0.00 0.00 0.00 76 1013.1
20260903013840 85 262 4.0 4.0 0.00 0.00 0.00 76 1012.9
20260903013339 85 268 3.0 3.0 0.00 0.00 0.00 76 1012.8
20260903012839 85 219 3.0 4.0 0.00 0.00 0.00 77 1012.6
20260903012333 85 236 4.0 6.0 0.00 0.00 0.00 78 1012.6
20260903011827 85 259 2.0 3.0 0.00 0.00 0.00 79 1012.7
20260903011327 86 170 2.0 3.0 0.00 0.00 0.00 79 1012.4
20260903010822 86 335 2.0 2.0 0.00 0.00 0.00 76 1012.7
20260903010318 86 301 2.0 2.0 0.00 0.00 0.00 77 1012.8
20260903005815 87 204 3.0 3.0 0.00 0.00 0.00 76 1012.7
20260903005310 87 14 2.0 2.0 0.00 0.00 0.00 75 1012.6
20260903004801 88 340 0.0 1.0 0.00 0.00 0.00 74 1012.7
20260903004256 88 310 2.0 2.0 0.00 0.00 0.00 72 1012.8
20260903003752 88 322 2.0 2.0 0.00 0.00 0.00 71 1013.1
20260903003252 88 302 2.0 2.0 0.00 0.00 0.00 71 1012.7
20260903002746 88 289 2.0 2.0 0.00 0.00 0.00 71 1012.9
20260903002241 89 278 3.0 3.0 0.00 0.00 0.00 70 1013.1
20260903001736 89 304 2.0 2.0 0.00 0.00 0.00 70 1012.9
20260903001231 89 288 2.0 2.0 0.00 0.00 0.00 69 1013.0
20260903000726 89 293 4.0 4.0 0.00 0.00 0.00 70 1012.7
20260903000226 89 323 2.0 2.0 0.00 0.00 0.00 69 1012.9
20260902235724 89 291 4.0 6.0 0.00 0.00 0.00 69 1013.0
20260902235220 89 265 4.0 6.0 0.00 0.00 0.00 70 1012.9
20260902234719 89 277 4.0 6.0 0.00 0.00 0.00 69 1013.1
20260902234218 90 285 3.0 4.0 0.00 0.00 0.00 68 1013.1
20260902233717 90 300 2.0 2.0 0.00 0.00 0.00 68 1013.0
20260902233212 90 248 5.0 7.0 0.00 0.00 0.00 67 1013.1
20260902232711 90 337 2.0 3.0 0.00 0.00 0.00 66 1013.0
20260902232210 90 232 5.0 7.0 0.00 0.00 0.00 65 1013.2
20260902231705 91 262 6.0 7.0 0.00 0.00 0.00 65 1013.0
20260902231159 91 233 4.0 4.0 0.00 0.00 0.00 65 1013.0
20260902230655 91 275 3.0 3.0 0.00 0.00 0.00 65 1013.1
20260902230153 92 230 5.0 7.0 0.00 0.00 0.00 64 1013.1
20260902225648 92 337 3.0 3.0 0.00 0.00 0.00 63 1013.0
20260902225143 93 229 4.0 4.0 0.00 0.00 0.00 62 1013.1
20260902224642 94 295 3.0 4.0 0.00 0.00 0.00 59 1012.9
20260902224138 93 266 3.0 3.0 0.00 0.00 0.00 59 1012.8
20260902223634 93 215 3.0 3.0 0.00 0.00 0.00 59 1012.9
20260902223132 93 260 4.0 4.0 0.00 0.00 0.00 58 1012.9
20260902222631 94 327 1.0 1.0 0.00 0.00 0.00 56 1012.9
20260902222130 94 260 3.0 4.0 0.00 0.00 0.00 55 1013.0
20260902221624 95 335 2.0 3.0 0.00 0.00 0.00 54 1013.1
20260902221120 97 315 3.0 3.0 0.00 0.00 0.00 51 1013.1
20260902220616 96 304 1.0 2.0 0.00 0.00 0.00 51 1013.1
20260902220110 95 256 2.0 3.0 0.00 0.00 0.00 53 1013.2
20260902215606 96 260 4.0 4.0 0.00 0.00 0.00 52 1013.2
20260902215101 95 325 2.0 2.0 0.00 0.00 0.00 53 1013.2
20260902214555 96 340 4.0 4.0 0.00 0.00 0.00 52 1013.5
20260902214054 94 338 2.0 3.0 0.00 0.00 0.00 53 1013.4
20260902213550 94 295 2.0 3.0 0.00 0.00 0.00 54 1013.4
20260902213049 96 309 4.0 4.0 0.00 0.00 0.00 53 1013.5
20260902212545 94 285 5.0 6.0 0.00 0.00 0.00 54 1013.5
20260902212041 94 323 4.0 4.0 0.00 0.00 0.00 55 1013.5
20260902211537 95 298 3.0 3.0 0.00 0.00 0.00 54 1013.9
20260902211032 95 336 6.0 7.0 0.00 0.00 0.00 55 1013.6
20260902210531 95 309 2.0 2.0 0.00 0.00 0.00 55 1013.7
20260902210026 95 333 2.0 3.0 0.00 0.00 0.00 54 1013.7
20260902205520 94 340 2.0 3.0 0.00 0.00 0.00 54 1014.0
20260902205016 95 318 4.0 4.0 0.00 0.00 0.00 53 1013.7
20260902204515 95 257 3.0 3.0 0.00 0.00 0.00 52 1013.7
20260902204011 96 274 2.0 3.0 0.00 0.00 0.00 52 1013.6
20260902203506 96 45 2.0 3.0 0.00 0.00 0.00 51 1013.5
20260902203005 96 254 6.0 7.0 0.00 0.00 0.00 52 1013.6
20260902202501 96 326 7.0 7.0 0.00 0.00 0.00 50 1013.7
20260902201957 96 341 6.0 8.0 0.00 0.00 0.00 50 1013.7
20260902201452 96 272 4.0 6.0 0.00 0.00 0.00 52 1013.7
20260902200951 96 345 3.0 4.0 0.00 0.00 0.00 51 1014.0
20260902200447 96 346 2.0 2.0 0.00 0.00 0.00 50 1014.0
20260902195942 96 335 4.0 7.0 0.00 0.00 0.00 50 1013.9
20260902195437 95 309 6.0 8.0 0.00 0.00 0.00 51 1014.1
20260902194932 96 259 6.0 7.0 0.00 0.00 0.00 50 1014.2
20260902194431 96 253 3.0 4.0 0.00 0.00 0.00 49 1014.2
20260902193926 96 315 4.0 4.0 0.00 0.00 0.00 50 1014.2
20260902193423 95 321 2.0 3.0 0.00 0.00 0.00 52 1014.0
20260902192921 94 290 5.0 8.0 0.00 0.00 0.00 52 1013.9
20260902192420 95 255 8.0 9.0 0.00 0.00 0.00 50 1013.9
20260902191919 94 238 5.0 7.0 0.00 0.00 0.00 50 1014.0
20260902191415 95 264 9.0 10.0 0.00 0.00 0.00 50 1014.0
20260902190910 94 265 9.0 13.0 0.00 0.00 0.00 51 1014.0
20260902190405 95 208 9.0 11.0 0.00 0.00 0.00 53 1014.0
20260902185901 95 329 4.0 6.0 0.00 0.00 0.00 53 1014.1
20260902185356 95 275 6.0 7.0 0.00 0.00 0.00 51 1014.1
20260902184851 95 277 5.0 6.0 0.00 0.00 0.00 52 1014.2
20260902184347 95 273 3.0 4.0 0.00 0.00 0.00 55 1014.1
20260902183842 95 253 5.0 6.0 0.00 0.00 0.00 52 1014.1
20260902183338 95 348 4.0 6.0 0.00 0.00 0.00 53 1014.1
20260902182828 93 255 7.0 9.0 0.00 0.00 0.00 54 1014.2
20260902182325 93 252 8.0 11.0 0.00 0.00 0.00 55 1014.2
20260902181821 93 249 3.0 6.0 0.00 0.00 0.00 56 1014.2
20260902181316 93 334 7.0 9.0 0.00 0.00 0.00 56 1014.3
20260902180810 93 247 6.0 8.0 0.00 0.00 0.00 57 1014.5
20260902180306 93 256 3.0 6.0 0.00 0.00 0.00 58 1014.5
20260902175801 93 286 4.0 4.0 0.00 0.00 0.00 58 1014.5
20260902175256 92 261 5.0 7.0 0.00 0.00 0.00 58 1014.7
20260902174757 92 241 5.0 7.0 0.00 0.00 0.00 59 1014.6
20260902174254 92 243 3.0 4.0 0.00 0.00 0.00 59 1014.7
20260902173749 91 276 2.0 3.0 0.00 0.00 0.00 60 1014.7
20260902173248 91 305 5.0 7.0 0.00 0.00 0.00 60 1015.1
20260902172743 91 283 5.0 6.0 0.00 0.00 0.00 60 1015.0
20260902172243 91 344 2.0 2.0 0.00 0.00 0.00 61 1015.1
20260902171738 90 318 2.0 2.0 0.00 0.00 0.00 60 1015.2
20260902171233 89 256 5.0 6.0 0.00 0.00 0.00 62 1015.2
20260902170730 90 275 4.0 6.0 0.00 0.00 0.00 61 1015.3
20260902170225 89 262 6.0 8.0 0.00 0.00 0.00 62 1015.0
20260902165721 90 257 6.0 8.0 0.00 0.00 0.00 63 1014.9
20260902165214 90 326 2.0 3.0 0.00 0.00 0.00 63 1015.2
20260902164709 89 220 4.0 4.0 0.00 0.00 0.00 62 1015.0
20260902164208 90 278 4.0 4.0 0.00 0.00 0.00 63 1015.2
20260902163704 90 227 2.0 4.0 0.00 0.00 0.00 59 1015.1
20260902163203 88 336 3.0 3.0 0.00 0.00 0.00 63 1015.0
20260902162701 88 266 3.0 3.0 0.00 0.00 0.00 63 1015.0
20260902162156 88 251 5.0 7.0 0.00 0.00 0.00 64 1014.9
20260902161651 87 13 2.0 3.0 0.00 0.00 0.00 64 1015.0
20260902161147 87 340 4.0 6.0 0.00 0.00 0.00 67 1014.9
20260902160644 87 237 4.0 6.0 0.00 0.00 0.00 65 1014.9
20260902160138 87 282 5.0 6.0 0.00 0.00 0.00 65 1015.0
20260902155637 86 56 4.0 6.0 0.00 0.00 0.00 67 1014.9
20260902155135 86 200 4.0 7.0 0.00 0.00 0.00 66 1015.0
20260902154630 86 274 4.0 7.0 0.00 0.00 0.00 67 1014.8
20260902154126 86 177 5.0 6.0 0.00 0.00 0.00 67 1014.7
20260902153625 86 246 2.0 3.0 0.00 0.00 0.00 65 1014.9
20260902153120 86 239 4.0 4.0 0.00 0.00 0.00 69 1014.9
20260902152616 86 267 5.0 7.0 0.00 0.00 0.00 69 1014.9
20260902152111 85 299 2.0 3.0 0.00 0.00 0.00 69 1014.9
20260902151607 86 225 4.0 6.0 0.00 0.00 0.00 67 1014.9
20260902151107 85 319 4.0 4.0 0.00 0.00 0.00 70 1014.9
20260902150602 84 298 4.0 4.0 0.00 0.00 0.00 71 1014.9
20260902150058 83 277 5.0 6.0 0.00 0.00 0.00 72 1014.8
20260902145557 84 307 4.0 6.0 0.00 0.00 0.00 71 1014.9
20260902145057 84 333 3.0 4.0 0.00 0.00 0.00 71 1014.8
20260902144554 83 208 2.0 3.0 0.00 0.00 0.00 70 1014.9
20260902144054 83 253 2.0 4.0 0.00 0.00 0.00 70 1015.0
20260902143549 83 224 4.0 4.0 0.00 0.00 0.00 73 1014.9
20260902143045 82 254 4.0 6.0 0.00 0.00 0.00 72 1014.7
20260902142543 82 268 4.0 6.0 0.00 0.00 0.00 72 1014.8
20260902142036 83 213 3.0 4.0 0.00 0.00 0.00 71 1014.7
20260902141536 82 229 4.0 4.0 0.00 0.00 0.00 72 1014.8
20260902141032 82 224 6.0 7.0 0.00 0.00 0.00 72 1014.6
20260902140532 81 263 3.0 4.0 0.00 0.00 0.00 74 1014.7
20260902140027 80 210 6.0 8.0 0.00 0.00 0.00 76 1014.8